Вернуться в каталог

STARLINK-11268

АктивенСвязьVLEO
NORAD 61055·PAYLOAD·🇺🇸 United States

Запущен Sep 13, 2024 с Vandenberg Space Force Base

Loading…

Ближайшие Пролёты (ближайшие 24 часа)

TLE

СвежийSource: CelesTrak SupGP

Эпоха: Sep 15, 2026, 02:48 UTC

1 61055C 24164F   26258.11715278  .00049277  00000+0  40560-3 0  2583
2 61055  53.1564  97.1944 0001036  75.9668 306.4474 15.69703356    12

Отслеживайте STARLINK-11268 в реальном времени с AllMySat

Download on the App Store